Dewpoint
3 3 3 4 4 4 5 4 6 4 4 2 1 2 3 3 3 2 2 3 3 1 1 1 1 -2 -1 -1 -1 -2 -4 -4 -1 -5 -8 -8 -6 -4 -4 -3 -5 -7 -7 -8
4 4 4 5 4 4 4 4 4 3 2 -1 2 3 3 3 3 3 2 2 2 -0 0 1 0 0 0 -1 -1 -4 -4 -2 -1 -2 -3 -3 -2 -3 -5 -4 -3 -4 -6 -10
3 4 3 2 2 3 3 1 1 2 1 2 3 3 3 3 3 2 1 2 1 -1 -0 -1 1 -0 -2 -2 -3 -4 -3 -3 -1 -2 -2 -3 -4 -6 -7 -7 -7 -10 -13 -14
1 4 5 1 -0 -0 1 1 0 1 3 3 3 3 3 3 3 2 2 -0 -2 -3 -2 -1 -0 -3 -3 -2 -3 -2 -1 -3 -4 -5 -6 -6 -6 -7 -8 -11 -13 -14 -15 -15
4 5 2 2 0 1 1 1 1 3 3 2 1 3 3 2 3 2 -0 -1 -1 -1 0 -2 -5 -3 -2 -2 -4 -4 -5 -5 -5 -6 -9 -10 -12 -12 -14 -14 -14 -14 -14 -14
3 5 5 1 -3 -1 2 4 2 3 3 1 2 4 2 4 3 1 -1 -1 -1 -1 -4 -6 -2 -1 -2 -2 -3 -4 -6 -7 -7 -10 -12 -14 -16 -15 -13 -13 -14 -14 -13 -12
2 3 2 -1 -1 -0 4 2 0 1 1 2 2 3 4 2 -0 -2 -4 -2 -2 -5 -6 -2 -1 -2 -4 -6 -7 -7 -6 -8 -10 -15 -16 -16 -15 -13 -13 -13 -13 -12 -13 -13
2 3 3 -0 1 2 1 0 1 1 2 4 4 3 2 -0 -3 -4 -1 -4 -8 -6 -3 -2 -3 -5 -6 -7 -7 -6 -9 -11 -16 -16 -16 -16 -14 -13 -12 -13 -13 -13 -14 -14
1 2 -1 -0 -0 -0 1 1 1 4 4 2 2 1 -2 -6 -2 -1 -4 -8 -6 -4 -3 -3 -3 -5 -5 -6 -6 -7 -14 -16 -17 -16 -15 -13 -12 -12 -12 -12 -13 -13 -12 -13
1 1 -0 0 1 1 1 2 4 2 2 1 -0 -2 -5 -5 -1 -2 -6 -9 -5 -3 -3 -4 -3 -5 -5 -6 -8 -14 -15 -14 -14 -14 -13 -12 -11 -10 -11 -12 -12 -12 -12 -13
3 2 3 2 1 2 3 4 3 2 1 -2 -6 -6 -3 -3 -1 -4 -5 -6 -3 -3 -5 -7 -7 -8 -8 -8 -14 -15 -13 -12 -11 -11 -9 -9 -10 -10 -10 -11 -11 -11 -13 -13
5 2 2 2 4 4 2 1 1 -2 -5 -6 -4 -3 -4 -2 -2 -3 -3 -6 -5 -7 -6 -7 -8 -8 -8 -10 -14 -14 -11 -10 -10 -9 -8 -9 -9 -10 -11 -12 -12 -12 -14 -12
3 2 3 3 3 1 0 -2 -5 -5 -4 -3 -4 -3 -3 -3 -3 -2 -5 -5 -5 -6 -5 -6 -8 -9 -8 -9 -12 -12 -10 -8 -8 -9 -9 -9 -9 -11 -11 -12 -12 -13 -14 -14
2 3 3 3 1 -2 -7 -6 -5 -6 -5 -3 -4 -5 -5 -5 -4 -3 -6 -6 -6 -9 -6 -7 -9 -12 -9 -8 -11 -10 -8 -7 -7 -9 -9 -10 -10 -10 -10 -12 -12 -14 -15 -14
1 1 2 1 -5 -9 -10 -12 -9 -4 -3 -5 -5 -4 -4 -4 -3 -2 -4 -6 -13 -12 -12 -14 -14 -13 -13 -13 -13 -9 -7 -7 -8 -9 -10 -10 -11 -11 -12 -12 -13 -14 -15 -14
-0 -0 -3 -7 -9 -12 -14 -14 -10 -8 -6 -5 -3 -3 -3 -3 -3 -3 -5 -12 -10 -12 -13 -13 -15 -15 -15 -9 -6 -7 -7 -8 -9 -9 -10 -10 -11 -11 -12 -13 -13 -14 -14 -14
-2 -6 -10 -9 -5 -7 -10 -13 -9 -7 -6 -6 -4 -5 -5 -4 -4 -5 -12 -9 -10 -12 -13 -14 -12 -11 -9 -7 -7 -7 -8 -8 -9 -9 -10 -11 -12 -12 -13 -13 -13 -14 -14 -15
-6 -4 -3 -7 -8 -9 -12 -13 -9 -6 -6 -7 -6 -6 -5 -4 -4 -11 -8 -10 -12 -11 -11 -12 -17 -14 -9 -8 -8 -8 -8 -9 -9 -10 -10 -11 -12 -12 -12 -13 -13 -14 -14 -15
-6 -7 -7 -7 -7 -8 -10 -11 -8 -8 -6 -5 -5 -6 -5 -5 -7 -7 -8 -10 -10 -11 -13 -16 -15 -11 -9 -9 -9 -8 -9 -9 -10 -11 -11 -12 -12 -13 -13 -14 -14 -14 -15 -15
-7 -10 -8 -6 -6 -6 -8 -8 -7 -7 -8 -4 -4 -5 -6 -5 -6 -6 -9 -11 -14 -14 -15 -14 -11 -9 -8 -9 -9 -9 -9 -10 -10 -11 -11 -12 -12 -13 -13 -14 -14 -15 -15 -16
-11 -10 -7 -7 -6 -6 -6 -7 -7 -4 -5 -3 -4 -5 -4 -6 -6 -7 -7 -9 -10 -10 -11 -11 -9 -9 -9 -9 -9 -9 -9 -10 -10 -11 -11 -12 -12 -13 -14 -15 -15 -15 -15 -16
-9 -8 -9 -9 -9 -8 -8 -7 -6 -6 -5 -4 -6 -5 -5 -6 -6 -7 -7 -8 -8 -9 -9 -9 -9 -9 -9 -9 -9 -9 -10 -10 -10 -11 -11 -11 -12 -12 -13 -15 -15 -15 -15 -18
-10 -9 -7 -7 -6 -6 -6 -6 -6 -5 -5 -5 -6 -5 -6 -6 -6 -7 -8 -9 -8 -8 -9 -9 -9 -9 -10 -9 -8 -10 -10 -10 -11 -10 -11 -11 -12 -12 -13 -14 -15 -15 -17 -22
-8 -8 -7 -7 -5 -5 -4 -4 -6 -5 -5 -4 -4 -5 -6 -6 -6 -7 -7 -8 -9 -9 -9 -9 -9 -9 -9 -10 -10 -10 -10 -10 -11 -10 -10 -11 -11 -12 -12 -14 -15 -16 -23 -28
-7 -7 -6 -5 -4 -4 -4 -5 -5 -4 -4 -4 -4 -5 -6 -7 -6 -7 -9 -12 -11 -9 -9 -9 -9 -9 -10 -10 -10 -10 -10 -11 -10 -10 -10 -10 -11 -12 -12 -14 -16 -18 -25 -31
-6 -7 -7 -5 -5 -5 -5 -5 -4 -5 -4 -4 -5 -5 -7 -7 -6 -6 -7 -12 -10 -9 -9 -9 -9 -9 -10 -10 -10 -10 -10 -10 -10 -10 -10 -10 -11 -11 -12 -13 -15 -18 -25 -31
-8 -7 -6 -5 -5 -5 -5 -5 -5 -5 -5 -5 -5 -6 -8 -6 -6 -6 -7 -9 -9 -9 -9 -10 -10 -10 -10 -10 -10 -10 -10 -10 -10 -10 -10 -10 -11 -11 -11 -12 -14 -17 -21 -25
Wind_Speed
6 7 6 14 13 16 9 11 6 9 10 13 6 5 12 18 20 23 27 23 19 28 31 27 27 31 31 31 34 37 36 29 23 14 10 12 12 13 12 14 14 14 20 23
4 6 10 15 14 11 14 11 8 10 10 6 4 9 14 21 24 24 25 22 25 31 31 29 30 32 29 33 32 27 19 17 14 10 9 12 16 13 9 14 18 17 21 25
5 6 9 7 7 4 3 5 5 5 7 2 6 15 20 25 28 25 31 25 29 31 32 29 30 26 32 31 22 13 12 11 10 11 9 11 11 12 14 17 21 21 24 28
3 3 1 8 3 6 9 10 6 6 5 8 16 26 23 26 21 19 26 24 27 31 29 30 29 34 30 22 16 15 12 7 6 7 8 10 16 23 23 19 22 25 27 27
2 3 6 9 9 2 3 7 4 5 4 20 29 29 21 17 13 18 15 17 23 28 27 30 34 29 19 15 7 3 6 9 16 19 19 18 18 18 22 23 23 24 26 26
3 4 5 8 4 6 1 6 2 2 11 25 20 10 9 6 16 18 19 21 22 23 32 34 19 15 19 19 10 9 21 16 18 18 20 21 22 22 21 23 25 24 24 26
2 6 8 9 8 1 4 5 7 14 25 26 10 16 15 14 16 18 20 20 23 31 29 18 14 18 19 9 9 16 18 17 18 21 21 21 21 22 24 23 23 24 27 29
2 3 8 2 1 5 10 22 25 28 21 17 13 10 11 17 21 22 21 26 30 26 17 14 16 14 13 10 16 17 17 20 21 20 20 21 22 22 21 23 25 28 29 29
9 6 7 7 15 31 25 29 24 15 14 13 9 14 21 25 25 18 22 28 26 22 16 15 15 13 14 14 17 19 19 19 20 21 21 21 20 21 23 23 25 26 27 30
4 8 21 21 36 41 37 18 9 7 5 6 19 20 24 30 26 20 25 27 25 22 22 18 17 11 14 16 15 17 17 19 22 22 21 19 19 22 22 22 25 26 28 30
13 20 28 32 30 23 14 9 8 8 11 18 22 26 28 28 20 25 24 24 22 22 16 14 11 12 15 14 15 15 17 20 23 22 20 20 20 23 22 21 23 25 27 26
11 26 24 28 18 11 5 7 8 15 17 19 24 23 24 23 25 25 24 20 20 18 16 16 17 18 18 15 15 16 18 21 23 22 22 22 23 24 20 21 22 22 24 21
29 34 24 23 8 3 5 9 11 17 22 21 22 21 23 25 26 24 21 18 18 21 20 19 18 19 15 14 15 16 19 22 24 23 21 20 21 22 23 23 22 21 23 20
25 20 13 2 1 7 12 16 19 23 22 17 22 25 24 25 25 23 20 20 21 19 17 19 20 18 17 18 18 19 20 22 22 22 20 21 20 20 21 24 24 24 22 20
17 10 7 2 7 10 15 19 21 19 19 27 25 21 22 25 23 22 21 19 14 18 20 19 20 18 17 18 20 19 20 20 20 20 20 21 19 17 21 19 20 22 22 18
5 5 7 8 10 15 19 21 22 23 23 24 23 24 25 23 24 21 17 14 18 18 20 19 18 18 17 15 13 16 18 18 15 18 19 22 17 18 17 18 17 20 20 21
9 5 7 14 23 25 27 24 23 24 25 25 25 27 27 27 22 15 13 17 18 19 16 15 17 19 16 12 12 15 13 12 13 16 20 17 18 15 17 16 17 18 18 19
10 11 20 25 25 24 26 25 24 23 22 23 24 28 28 23 18 11 13 17 17 14 14 14 15 10 9 11 12 9 9 14 13 18 16 17 15 16 16 15 15 16 16 17
16 19 20 19 19 21 25 26 24 24 25 23 26 28 27 24 14 13 15 16 13 13 13 12 11 9 9 10 11 10 11 15 16 15 16 15 16 16 15 14 14 14 15 16
18 21 23 24 23 25 27 29 30 29 30 27 28 29 28 21 14 13 16 11 10 10 10 10 9 8 8 10 7 8 12 12 14 16 13 13 15 16 15 14 13 13 14 14
27 25 24 25 27 29 29 31 30 29 32 29 29 29 25 16 11 14 13 11 10 10 10 10 7 8 9 10 9 8 8 11 14 15 12 13 15 16 15 12 12 12 13 13
26 28 29 30 31 32 31 30 29 30 29 28 30 26 20 12 11 13 12 11 12 11 10 9 8 10 12 12 10 7 7 10 13 15 13 13 14 15 14 12 11 12 12 11
28 30 31 31 31 30 31 30 29 26 23 25 27 21 14 10 10 13 13 11 9 12 12 9 9 10 11 12 8 7 8 11 14 13 12 12 13 15 14 13 11 12 11 9
29 31 32 33 31 32 31 31 29 23 23 25 24 14 11 8 11 13 12 11 12 10 9 8 7 8 9 11 10 9 10 11 13 13 13 12 13 13 13 12 10 10 8 7
30 31 36 34 32 33 32 34 29 23 25 25 19 11 10 9 12 13 13 15 9 8 10 8 7 10 10 10 11 12 11 12 13 12 12 12 11 10 11 11 9 8 7 6
31 33 33 28 26 27 29 27 26 23 22 23 12 11 9 10 11 11 12 11 9 10 10 10 10 10 11 12 12 11 13 14 12 11 12 12 12 11 10 10 9 8 6 5
33 31 32 32 33 31 28 26 24 24 22 16 12 13 12 13 13 14 16 12 9 9 11 11 12 10 11 12 12 12 12 13 14 13 13 13 12 12 11 10 9 8 7 6
Wind_Direction
234 256 266 271 278 289 261 242 225 276 276 281 245 275 306 307 314 301 311 314 305 319 323 326 322 328 323 323 319 318 321 323 323 307 257 227 223 241 250 276 318 286 279 282
296 259 265 277 275 257 268 284 252 260 274 275 268 296 294 305 307 304 314 315 316 319 326 324 319 316 316 319 317 321 326 332 320 285 248 255 265 304 282 277 277 292 287 293
266 349 321 306 237 212 242 234 207 246 248 267 294 294 291 303 310 309 325 314 321 324 322 320 317 317 321 318 315 322 326 328 339 327 327 319 335 339 328 310 292 291 300 304
251 359 263 248 257 222 220 256 247 268 243 262 289 300 294 304 300 306 315 326 331 327 325 314 316 317 317 314 300 296 298 333 343 352 339 328 315 305 306 303 305 305 305 307
219 219 298 296 285 325 213 271 242 227 290 330 308 305 297 300 286 311 323 337 328 314 311 317 320 314 320 313 333 14 33 355 341 335 324 315 312 308 306 307 309 312 315 315
176 248 256 238 261 338 328 277 258 233 282 305 304 299 308 340 326 337 329 318 305 308 315 319 313 297 306 314 311 318 341 333 320 314 312 314 315 314 314 314 315 316 315 314
194 251 282 250 265 140 77 252 250 296 303 295 276 284 324 320 348 331 316 303 316 322 323 321 314 310 316 329 311 317 319 317 315 314 317 317 315 313 315 318 317 315 314 318
136 207 278 168 168 151 272 296 303 309 309 304 303 304 330 344 330 318 308 324 325 326 326 321 320 310 331 304 308 318 318 319 318 320 320 318 316 318 319 319 317 319 320 322
184 218 246 210 280 301 303 310 313 302 309 318 0 0 339 319 312 298 320 328 329 323 320 314 305 289 304 317 317 318 320 324 326 326 324 322 322 324 323 320 322 325 325 327
331 250 270 286 293 299 300 304 321 350 352 35 352 340 322 316 304 312 327 328 319 316 321 318 293 318 314 312 312 318 323 329 332 330 326 323 321 330 328 324 324 327 328 328
260 278 282 281 286 304 298 281 280 292 352 331 329 323 320 311 302 318 321 323 320 323 317 326 310 319 310 307 319 319 327 332 333 327 323 319 320 330 329 323 324 326 327 323
262 272 275 290 314 302 305 3 3 341 326 313 311 314 316 306 311 310 310 319 323 325 319 321 319 306 307 311 317 317 321 327 330 325 321 317 318 323 327 325 325 325 327 320
268 283 293 305 307 62 21 13 337 312 308 317 314 317 315 313 316 306 303 312 309 312 302 301 311 309 293 300 306 307 312 318 324 327 325 317 316 324 325 329 330 328 333 328
297 293 304 292 335 27 342 328 315 306 305 306 317 319 318 316 310 296 299 304 304 308 299 300 309 302 288 294 298 296 300 307 318 326 323 321 321 323 322 327 330 336 339 337
310 283 246 254 17 348 333 321 315 316 308 309 315 317 316 315 306 298 296 298 307 311 305 303 302 302 296 295 294 293 298 309 321 324 327 329 322 320 325 329 331 336 339 342
202 135 92 11 332 337 336 327 318 314 311 316 319 318 319 314 310 300 299 298 307 303 302 307 307 305 305 306 311 306 307 318 318 321 321 327 322 323 328 331 336 340 343 345
119 67 20 7 351 337 330 325 318 316 318 321 317 318 321 314 304 291 286 300 299 298 306 309 309 310 306 308 298 299 314 322 320 318 321 329 335 331 333 330 335 340 343 346
56 17 340 333 329 325 329 326 322 318 320 322 321 324 319 310 296 281 295 294 299 301 304 308 314 325 325 311 306 296 316 330 316 320 324 327 330 330 332 330 333 339 345 348
334 326 323 318 315 316 325 323 318 317 315 315 318 323 313 306 274 283 286 296 293 293 297 304 318 329 332 318 316 303 320 321 321 325 329 330 333 331 337 335 336 341 344 347
326 322 318 312 312 312 318 324 317 313 319 320 317 320 311 295 266 278 291 286 293 290 305 320 321 325 321 315 305 301 300 319 325 328 333 335 340 339 340 338 338 341 346 351
318 317 316 317 314 314 314 321 316 306 314 312 318 315 302 273 264 285 274 290 297 289 307 309 309 311 316 318 310 300 308 315 323 330 328 335 338 342 342 343 342 342 348 352
323 320 317 317 316 313 312 315 312 311 308 311 319 310 289 248 278 275 273 276 278 290 305 301 302 312 314 312 310 306 305 314 318 320 320 327 328 333 338 343 344 345 348 353
320 319 318 317 317 315 312 314 317 310 303 316 318 305 266 253 268 264 268 280 270 289 299 296 307 313 317 327 304 301 304 309 313 321 317 320 322 324 331 334 335 341 343 350
321 321 319 317 315 314 313 313 320 308 302 306 312 290 235 240 261 268 264 267 276 290 287 289 305 316 317 327 336 312 300 303 310 318 317 316 318 314 324 328 332 336 341 349
321 320 320 318 316 316 315 315 313 301 296 305 303 244 216 240 262 263 261 273 281 282 282 284 294 304 311 317 324 333 327 312 310 316 317 323 318 316 318 329 330 329 330 335
321 322 324 322 325 324 326 321 314 310 307 308 279 215 214 245 263 276 291 290 265 272 278 272 283 290 297 302 301 295 307 323 330 322 319 316 322 320 315 322 325 324 324 319
322 323 329 329 332 332 323 321 316 306 304 295 238 210 217 238 253 268 284 285 280 275 276 283 289 288 290 287 294 296 298 300 310 317 320 319 317 318 315 309 312 312 308 307
Height
1570 1568 1565 1558 1556 1551 1556 1554 1559 1544 1543 1534 1532 1531 1529 1526 1522 1519 1513 1509 1506 1504 1499 1493 1489 1484 1479 1475 1470 1465 1459 1454 1450 1447 1445 1446 1444 1444 1443 1442 1441 1439 1436 1434
1567 1565 1562 1557 1549 1550 1547 1545 1545 1542 1538 1528 1529 1529 1526 1522 1518 1514 1510 1504 1502 1498 1493 1487 1483 1479 1475 1471 1465 1461 1456 1452 1450 1448 1445 1444 1443 1442 1440 1438 1435 1434 1432 1429
1580 1575 1571 1561 1546 1543 1541 1538 1537 1543 1532 1528 1527 1525 1521 1515 1513 1508 1504 1501 1498 1494 1490 1486 1481 1476 1471 1466 1461 1457 1454 1450 1449 1448 1444 1444 1443 1440 1438 1437 1434 1430 1427 1423
1587 1574 1576 1539 1534 1533 1535 1532 1528 1528 1525 1525 1523 1518 1516 1513 1508 1505 1502 1499 1495 1491 1484 1481 1477 1472 1466 1461 1458 1456 1452 1450 1448 1444 1443 1442 1441 1438 1434 1431 1428 1424 1421 1416
1576 1573 1560 1540 1530 1529 1528 1529 1521 1521 1522 1522 1519 1514 1508 1506 1504 1501 1497 1492 1492 1490 1482 1477 1471 1467 1463 1458 1456 1453 1452 1450 1447 1446 1443 1438 1435 1432 1429 1426 1422 1419 1414 1410
1576 1570 1559 1537 1527 1527 1527 1533 1519 1521 1520 1519 1515 1512 1504 1503 1501 1498 1495 1491 1487 1481 1476 1473 1468 1464 1461 1457 1454 1452 1450 1448 1446 1443 1439 1434 1431 1428 1424 1421 1417 1413 1409 1405
1573 1570 1555 1528 1526 1526 1539 1531 1518 1519 1517 1514 1512 1507 1503 1496 1496 1495 1489 1483 1481 1476 1471 1467 1466 1463 1459 1454 1456 1453 1449 1446 1444 1441 1437 1432 1428 1424 1420 1416 1413 1409 1404 1400
1567 1565 1557 1523 1524 1531 1523 1516 1515 1512 1510 1507 1503 1499 1497 1498 1493 1489 1490 1484 1479 1471 1466 1464 1463 1462 1457 1454 1452 1450 1448 1444 1441 1437 1433 1429 1425 1421 1417 1413 1409 1404 1399 1394
1548 1538 1522 1521 1519 1517 1516 1511 1509 1507 1506 1504 1501 1500 1499 1493 1486 1481 1479 1477 1472 1468 1463 1461 1459 1458 1455 1453 1451 1448 1445 1441 1438 1434 1430 1425 1421 1417 1414 1409 1405 1400 1395 1390
1534 1524 1517 1518 1514 1513 1510 1506 1505 1504 1502 1499 1502 1497 1492 1488 1486 1480 1474 1471 1469 1466 1460 1456 1454 1453 1452 1450 1447 1445 1442 1439 1435 1431 1427 1423 1419 1415 1411 1406 1402 1397 1392 1387
1524 1520 1514 1513 1509 1508 1506 1500 1499 1500 1501 1500 1493 1488 1485 1482 1480 1477 1471 1468 1466 1462 1458 1454 1453 1450 1448 1446 1444 1442 1439 1436 1432 1428 1424 1420 1417 1413 1408 1405 1400 1394 1390 1385
1513 1511 1509 1505 1504 1501 1502 1502 1502 1500 1495 1493 1492 1487 1483 1480 1477 1472 1469 1464 1462 1461 1456 1454 1450 1447 1445 1443 1441 1439 1436 1433 1429 1425 1421 1417 1413 1409 1407 1402 1398 1393 1389 1384
1507 1506 1504 1503 1500 1500 1500 1499 1499 1496 1492 1490 1487 1485 1481 1476 1471 1468 1465 1461 1459 1456 1453 1450 1447 1443 1441 1439 1438 1435 1433 1429 1426 1422 1418 1414 1410 1406 1401 1399 1395 1391 1386 1381
1503 1501 1500 1500 1498 1497 1499 1496 1494 1492 1490 1487 1484 1480 1476 1471 1468 1465 1460 1457 1454 1451 1448 1445 1442 1438 1436 1435 1434 1432 1429 1426 1422 1418 1415 1411 1407 1403 1400 1395 1390 1387 1383 1379
1497 1496 1496 1498 1498 1497 1497 1494 1489 1487 1484 1482 1478 1475 1471 1466 1463 1459 1455 1452 1450 1447 1444 1440 1437 1435 1433 1431 1429 1427 1425 1422 1418 1415 1412 1408 1404 1401 1398 1394 1390 1385 1381 1378
1494 1495 1497 1499 1498 1496 1493 1490 1486 1481 1478 1475 1472 1468 1465 1461 1457 1453 1450 1448 1446 1443 1439 1436 1433 1431 1428 1427 1425 1424 1422 1419 1416 1413 1410 1406 1402 1399 1396 1392 1388 1384 1380 1376
1495 1497 1497 1497 1495 1492 1489 1484 1482 1477 1471 1469 1467 1463 1458 1454 1451 1448 1446 1444 1441 1437 1435 1432 1429 1427 1425 1424 1423 1421 1419 1417 1414 1411 1407 1404 1400 1397 1394 1390 1387 1383 1380 1376
1498 1497 1497 1495 1491 1488 1484 1480 1477 1472 1467 1464 1461 1457 1453 1449 1446 1444 1442 1439 1436 1434 1431 1429 1426 1424 1423 1421 1419 1418 1417 1414 1412 1408 1405 1402 1399 1395 1392 1389 1386 1383 1379 1376
1498 1495 1492 1489 1487 1484 1480 1475 1471 1467 1463 1460 1455 1451 1447 1444 1441 1440 1437 1435 1432 1430 1428 1426 1424 1422 1421 1419 1417 1416 1414 1412 1409 1406 1403 1400 1397 1394 1391 1387 1385 1382 1379 1375
1495 1492 1488 1485 1482 1479 1475 1469 1464 1460 1457 1453 1449 1444 1441 1437 1436 1435 1433 1431 1429 1427 1425 1423 1422 1421 1419 1417 1415 1414 1412 1410 1408 1404 1401 1398 1396 1392 1389 1386 1384 1381 1378 1375
1491 1486 1482 1479 1474 1471 1467 1462 1457 1452 1449 1446 1442 1437 1434 1432 1432 1431 1430 1427 1426 1424 1423 1421 1420 1418 1416 1414 1412 1411 1410 1408 1406 1403 1400 1397 1394 1391 1388 1385 1383 1380 1377 1375
1483 1480 1475 1470 1466 1461 1457 1454 1450 1446 1442 1439 1435 1431 1428 1428 1428 1427 1426 1426 1424 1422 1421 1419 1418 1416 1414 1411 1410 1408 1407 1406 1404 1401 1398 1396 1393 1391 1388 1385 1382 1380 1377 1374
1478 1473 1467 1463 1458 1454 1449 1445 1442 1438 1434 1432 1429 1425 1423 1424 1424 1424 1423 1423 1421 1420 1418 1417 1415 1414 1412 1409 1407 1406 1405 1403 1401 1398 1396 1394 1391 1389 1387 1384 1382 1379 1377 1374
1471 1465 1460 1456 1451 1446 1441 1437 1435 1431 1428 1426 1422 1419 1420 1421 1421 1421 1420 1419 1418 1417 1415 1414 1413 1412 1410 1408 1406 1404 1402 1401 1398 1396 1394 1391 1389 1387 1385 1383 1381 1378 1376 1374
1463 1458 1453 1448 1443 1438 1434 1429 1425 1423 1421 1419 1416 1415 1416 1417 1418 1418 1417 1416 1414 1414 1413 1411 1411 1410 1408 1406 1404 1402 1400 1398 1395 1394 1392 1390 1387 1385 1384 1382 1379 1377 1375 1374
1456 1451 1446 1442 1437 1432 1428 1423 1419 1417 1415 1412 1411 1412 1413 1414 1414 1414 1413 1412 1411 1411 1410 1409 1408 1407 1405 1404 1402 1400 1399 1396 1394 1391 1389 1388 1386 1383 1382 1380 1378 1376 1375 1373
1449 1445 1439 1434 1430 1426 1422 1418 1414 1411 1409 1407 1407 1409 1410 1410 1411 1411 1410 1408 1408 1407 1407 1406 1405 1403 1402 1401 1399 1397 1396 1394 1392 1390 1387 1385 1383 1382 1380 1378 1377 1375 1374 1373